This demonstration page uses our WeatherBlox Daily Observations layout. Learn more.

Left ArrowRight Arrow

34.74481, -87.66753

Hourly Observations for February 29, 2020

Temp ( °F °C ) Dew Point ( °F °C ) Humidity (%) Winds ( mph kmh ) Pressure ( in mb ) Visibility ( mi km ) Precip ( " mm )
12:53 am 00:53 Clear 41 5 35 1.7 79 79 W 3 6 30.19 1022 10 16 0.00 0.00
1:53 am 01:53 Clear 39 3.9 33 0.6 79 79 W 3 6 30.19 1023 10 16 0.00 0.00
2:53 am 02:53 Cloudy 40 4.4 33 0.6 77 77 WNW 5 7 30.19 1022 10 16 0.00 0.00
3:53 am 03:53 Clear 38 3.3 33 0.6 83 83 W 7 11 30.20 1023 10 16 0.00 0.00
4:53 am 04:53 Mostly Clear 39 3.9 32 0 76 76 W 6 9 30.22 1023 10 16 0.00 0.00
5:53 am 05:53 Clear 40 4.4 33 0.6 77 77 NNW 5 7 30.24 1024 10 16 0.00 0.00
6:53 am 06:53 Sunny 40 4.4 34 1.1 79 79 N 5 7 30.27 1025 10 16 0.00 0.00
7:53 am 07:53 Sunny 42 5.6 33 0.6 71 71 N 7 11 30.29 1026 10 16 0.00 0.00
8:53 am 08:53 Sunny 44 6.7 33 0.6 65 65 N 6 9 30.31 1026 10 16 0.00 0.00
9:53 am 09:53 Sunny 47 8.3 33 0.6 59 59 NNW 6 9 30.32 1027 10 16 0.00 0.00
10:53 am 10:53 Sunny 51 10.6 32 0 48 48 VRB 5 7 30.32 1027 10 16 0.00 0.00
11:53 am 11:53 Sunny 53 11.7 28 -2.2 38 38 NNW 8 13 30.30 1026 10 16 0.00 0.00
12:53 pm 12:53 Sunny 55 12.8 29 -1.7 37 37 WNW 8 13 30.28 1026 10 16 0.00 0.00
1:53 pm 13:53 Sunny 56 13.3 26 -3.3 32 32 NW 7 11 30.26 1025 10 16 0.00 0.00
2:53 pm 14:53 Sunny 57 13.9 27 -2.8 32 32 VRB 6 9 30.25 1024 10 16 0.00 0.00
3:53 pm 15:53 Sunny 58 14.4 25 -3.9 28 28 VRB 5 7 30.24 1024 10 16 0.00 0.00
4:53 pm 16:53 Sunny 58 14.4 24 -4.4 27 27 WNW 5 7 30.23 1024 10 16 0.00 0.00
5:53 pm 17:53 Clear 51 10.6 27 -2.8 39 39 Calm 30.23 1024 10 16 0.00 0.00
6:53 pm 18:53 Clear 46 7.8 31 -0.6 56 56 E 3 6 30.24 1024 10 16 0.00 0.00
7:53 pm 19:53 Clear 44 6.7 34 1.1 68 68 SSE 5 7 30.24 1024 10 16 0.00 0.00
8:53 pm 20:53 Clear 42 5.6 31 -0.6 65 65 ESE 3 6 30.24 1024 10 16 0.00 0.00
9:53 pm 21:53 Clear 41 5 32 0 70 70 SE 3 6 30.24 1024 10 16 0.00 0.00
10:53 pm 22:53 Clear 42 5.6 30 -1.1 62 62 SE 5 7 30.22 1023 10 16 0.00 0.00
11:53 pm 23:53 Clear 42 5.6 30 -1.1 62 62 SE 3 6 30.20 1023 10 16 0.00 0.00

Powered by AerisWeather